This is the latest recevied weather packets stored in our database for station/object SP5EB-3. If no packets are shown the sender has not sent any weather packets the latest 1 day(s).
| Time | Temp. | Humidity | Pressure | Rain* | Wind** | Luminosity | Snow |
|---|---|---|---|---|---|---|---|
| 1778047408 | 15.56° C | 99% | 1003.5 hPa | - | - | - | - |
| 1778046793 | 15° C | 99% | 1003.5 hPa | - | - | - | - |
| 1778046177 | 15° C | 99% | 1003.5 hPa | - | - | - | - |
| 1778045562 | 14.44° C | 99% | 1003.6 hPa | - | - | - | - |
| 1778045254 | 14.44° C | 99% | 1003.6 hPa | - | - | - | - |
| 1778044947 | 13.89° C | 1% | 1003.7 hPa | - | - | - | - |
| 1778044639 | 13.89° C | 1% | 1003.7 hPa | - | - | - | - |
| 1778044331 | 13.89° C | 1% | 1003.7 hPa | - | - | - | - |
| 1778043716 | 13.33° C | 1% | 1003.6 hPa | - | - | - | - |
| 1778043409 | 13.33° C | 1% | 1003.7 hPa | - | - | - | - |
| 1778043101 | 13.33° C | 1% | 1003.5 hPa | - | - | - | - |
| 1778042794 | 13.33° C | 1% | 1003.3 hPa | - | - | - | - |
| 1778041871 | 12.78° C | 13% | 1003.4 hPa | - | - | - | - |
| 1778041564 | 12.78° C | 1% | 1003.3 hPa | - | - | - | - |
| 1778041256 | 12.78° C | 1% | 1003.4 hPa | - | - | - | - |
| 1778040641 | 12.78° C | 1% | 1003.5 hPa | - | - | - | - |
| 1778040334 | 12.22° C | 1% | 1003.5 hPa | - | - | - | - |
| 1778039719 | 12.78° C | 99% | 1003.5 hPa | - | - | - | - |
| 1778039412 | 12.78° C | 99% | 1003.7 hPa | - | - | - | - |
| 1778039105 | 12.78° C | 99% | 1003.7 hPa | - | - | - | - |
| 1778038182 | 12.78° C | 99% | 1003.7 hPa | - | - | - | - |
| 1778037875 | 12.78° C | 99% | 1003.7 hPa | - | - | - | - |
| 1778037568 | 12.78° C | 99% | 1003.7 hPa | - | - | - | - |
| 1778036952 | 12.78° C | 99% | 1003.7 hPa | - | - | - | - |
| 1778036645 | 12.78° C | 99% | 1003.8 hPa | - | - | - | - |
* Rain since midnight (hover to see other rain measurements)
** Current wind speed in m/s (hover to see current wind gust speed)